Regional Weather Roundup
Issued by NWS

Home | Current Version | Previous Version | Graphics & Text | Print | Product List | Glossary On
Versions: 1 2 3 4 5 6 7 8 9 10 11 12 13 14 15 16 17 18 19 20 21 22 23 24 25 26 27 28 29 30 31 32 33 34 35 36 37 38 39 40 41 42 43 44 45 46 47 48 49 50
125
ASUS44 KLIX 181010
RWRLA
LOUISIANA WEATHER ROUNDUP
NATIONAL WEATHER SERVICE NEW ORLEANS LA
500 AM CDT FRI APR 18 2014

NOTE: "FAIR" INDICATES FEW OR NO CLOUDS BELOW 12,000 FEET WITH NO
      SIGNIFICANT WEATHER AND/OR OBSTRUCTIONS TO VISIBILITY.
      SKY/WX - SKY CONDITION AND SIGNIFICANT WEATHER.
      TMP - AIR TEMPERATURE.    DP   - DEWPOINT TEMPERATURE.
      RH  - RELATIVE HUMIDITY.  PRES - PRESSURE.
      HX  - HEAT INDEX.         WCI  - WIND CHILL INDEX.

*  THESE STATIONS ARE NOT NWS OR FAA STATIONS AND ARE NOT UNDER
   NWS QUALITY CONTROL.

LAZ040-048-061>063-065-066-069-181100-
SOUTHEAST LOUISIANA

CITY           SKY/WX    TMP DP  RH WIND       PRES   REMARKS
N.O. AUDUBON     N/A     64 N/A N/A MISG        N/A
N.O. INTL ARPT LGT RAIN  63  60  90 NE9       30.07R
N.O. LAKEFRONT CLOUDY    62  60  93 NE14      30.07R
N.O. DOWNTOWN* CLOUDY    63  55  77 NE8       30.07R
SLIDELL        CLOUDY    61  58  90 NE5       30.06R
BATON ROUGE    CLOUDY    61  54  77 VRB5      30.10R
BOOTHVILLE     CLOUDY    63  60  90 NE10      30.02S
BELLE CHASSE   CLOUDY    63  58  83 NE8       30.05R
BOGALUSA*        N/A     62  58  87 N6        30.11R
GALLIANO*      CLOUDY    64  61  88 N8        30.05R
NEW ROADS*     CLOUDY    59  56  87 NE6       30.11R
GONZALES*      CLOUDY    61  58  90 N5        30.08S
HAMMOND*       CLOUDY    61  55  82 N5        30.10S
HOUMA*           N/A     63  58  85 N6        30.06R HAZE
PORT FOURCHON* CLOUDY    64  61  88 NE12      30.04F

$$

LAZ041-044-053-054-181100-
SOUTHWEST LOUISIANA

CITY           SKY/WX    TMP DP  RH WIND       PRES   REMARKS
LAKE CHARLES   MOCLDY    56  54  93 N6        30.10S
LAFAYETTE      CLOUDY    61  58  90 N5        30.09S
PATTERSON      CLOUDY    63  59  88 N6          N/A
SALT POINT       N/A     65  61  87 CALM      30.07R
NEW IBERIA     CLOUDY    61  59  93 N6        30.09S
CHENAULT AIRPK NOT AVBL

$$

LAZ027-028-181100-
CENTRAL LOUISIANA

CITY           SKY/WX    TMP DP  RH WIND       PRES   REMARKS
FORT POLK      CLEAR     52  50  93 CALM      30.12S
ALEXANDRIA INT MOCLDY    52  51  97 NW6       30.11R FOG
ALEXANDRIA     FOG       51  49  92 CALM      30.11S VSB 1/2

$$

LAZ001-002-181100-
NORTHWEST LOUISIANA

CITY           SKY/WX    TMP DP  RH WIND       PRES   REMARKS
SHREVEPORT     CLOUDY    56  53  90 N5        30.17R
BARKSDALE AFB  TSTM      54  53  95 CALM      30.17S
DTN SHREVEPORT CLOUDY    54  51  90 N3        30.17F

$$

LAZ014-016-181100-
NORTHEAST LOUISIANA

CITY           SKY/WX    TMP DP  RH WIND       PRES   REMARKS
MONROE         CLOUDY    56  53  90 NE5       30.15F
TALLULAH       CLEAR     58  53  84 NE6       30.13F

$$




USA.gov is the U.S. government's official web portal to all federal, state and local government web resources and services.